GLOBALSTAR M034 [-]

Last updated on Fri Dec 29 2023 00:02:56 GMT+0000 (Coordinated Universal Time)

1 25962U 99062B 23362.15615812 -.00000061 00000+0 32049-3 0 9993 2 25962 51.9898 327.3251 0014225 105.9247 339.4020 11.79421550 75009

Satellite not in orbit

GLOBALSTAR M034 [-]